Regional Weather Roundup
Issued by NWS

Home | Current Version | Previous Version | Graphics & Text | Print | Product List | Glossary On
Versions: 1 2 3 4 5 6 7 8 9 10 11 12 13 14 15 16 17 18 19 20 21 22 23 24 25 26 27 28 29 30 31 32 33 34 35 36 37 38 39 40 41 42 43 44 45 46 47 48 49 50
000
ASUS43 KBIS 301710
RWRND

NORTH DAKOTA REGIONAL WEATHER ROUNDUP
NATIONAL WEATHER SERVICE BISMARCK ND
1200 PM CDT SAT AUG 30 2014

NOTE: "FAIR" INDICATES FEW OR NO CLOUDS BELOW 12,000 FEET WITH NO
SIGNIFICANT WEATHER AND/OR OBSTRUCTIONS TO VISIBILITY.


NDZ001>003-009>011-017-301800-
NORTHWEST NORTH DAKOTA

CITY           SKY/WX    TMP DP  RH WIND       PRES   REMARKS
WILLISTON      MOSUNNY   70  55  59 S13       29.80F
MINOT          SUNNY     67  48  50 SE14      29.87F
MINOT AFB      SUNNY     66  51  58 S14       29.86F
$$

NDZ018>021-031>035-040>046-301800-
SOUTHWEST NORTH DAKOTA

CITY           SKY/WX    TMP DP  RH WIND       PRES   REMARKS
BISMARCK       SUNNY     66  54  65 S10       29.91F
DICKINSON      SUNNY     66  55  67 SE22      29.84F
GARRISON         N/A     66  52  60 S10       29.88F
HETTINGER ARPT SUNNY     68  54  60 SE18      29.86F
$$

NDZ004>008-012>016-024-026-027-054-301800-
NORTHEAST NORTH DAKOTA

CITY           SKY/WX    TMP DP  RH WIND       PRES   REMARKS
GRAND FORKS    MOSUNNY   67  54  63 VRB5      29.92S
GRND FRKS AFB  SUNNY     65  56  73 SE3       29.93F
DEVILS LAKE    SUNNY     63  46  55 S8        29.92F
$$

NDZ022-023-025-028>030-036>039-047>053-301800-
SOUTHEAST NORTH DAKOTA

CITY           SKY/WX    TMP DP  RH WIND       PRES   REMARKS
FARGO          CLOUDY    62  56  80 NW6       29.91F
JAMESTOWN      MOSUNNY   65  53  65 VRB5      29.92F
$$



USA.gov is the U.S. government's official web portal to all federal, state and local government web resources and services.